contact:dominique.lefevre@mio.osupytheas.fr, maurice.libes@osupytheas.fr, didier.mallarino@osupytheas.fr
Project:EMSO http://www.emso-fr.org/EMSO-France
Depth: 2436.0 m
Title:EMSO Ligure Ouest : Data MII capteur MICROCAT
DateTime_Computer,Latitude,Longitude,Temperature,Conductivity,Pressure,DateTime_Instrument
DateTime_Computer,Latitude,Longitude,degC,S m-1,dbar,DateTime_Instrument
2023-06-19T00:02:53Z,42.805,6.029,13.3032,4.60094,2470.787,2023-6-19T02:05:08Z
2023-06-19T00:05:56Z,42.805,6.029,13.3031,4.60095,2470.847,2023-6-19T02:08:11Z
2023-06-19T00:08:59Z,42.805,6.029,13.3032,4.60095,2470.763,2023-6-19T02:11:14Z
2023-06-19T00:12:03Z,42.805,6.029,13.3034,4.60094,2470.81,2023-6-19T02:14:17Z
2023-06-19T00:15:06Z,42.805,6.029,13.3030,4.60094,2470.763,2023-6-19T02:17:20Z
2023-06-19T00:18:09Z,42.805,6.029,13.3024,4.60085,2470.81,2023-6-19T02:20:23Z
2023-06-19T00:21:12Z,42.805,6.029,13.3033,4.60099,2470.824,2023-6-19T02:23:26Z
2023-06-19T00:24:15Z,42.805,6.029,13.3029,4.60097,2470.787,2023-6-19T02:26:29Z
2023-06-19T00:27:18Z,42.805,6.029,13.3034,4.60094,2470.8,2023-6-19T02:29:32Z
2023-06-19T00:30:21Z,42.805,6.029,13.3026,4.60090,2470.787,2023-6-19T02:32:35Z
2023-06-19T00:33:24Z,42.805,6.029,13.3030,4.60090,2470.777,2023-6-19T02:35:39Z
2023-06-19T00:36:27Z,42.805,6.029,13.3031,4.60088,2470.763,2023-6-19T02:38:42Z
2023-06-19T00:39:30Z,42.805,6.029,13.3031,4.60089,2470.787,2023-6-19T02:41:45Z
2023-06-19T00:42:33Z,42.805,6.029,13.3034,4.60090,2470.8,2023-6-19T02:44:48Z
2023-06-19T00:45:37Z,42.805,6.029,13.3030,4.60093,2470.787,2023-6-19T02:47:51Z
2023-06-19T00:48:40Z,42.805,6.029,13.3031,4.60094,2470.787,2023-6-19T02:50:54Z
2023-06-19T00:51:43Z,42.805,6.029,13.3032,4.60112,2470.777,2023-6-19T02:53:57Z
2023-06-19T00:54:46Z,42.805,6.029,13.3031,4.60092,2470.763,2023-6-19T02:57:00Z
2023-06-19T00:57:49Z,42.805,6.029,13.3031,4.60089,2470.763,2023-6-19T03:00:03Z
2023-06-19T01:00:52Z,42.805,6.029,13.3033,4.60096,2470.763,2023-6-19T03:03:06Z
2023-06-19T01:03:55Z,42.805,6.029,13.3036,4.60090,2470.74,2023-6-19T03:06:09Z
2023-06-19T01:06:58Z,42.805,6.029,13.3031,4.60089,2470.763,2023-6-19T03:09:13Z
2023-06-19T01:10:01Z,42.805,6.029,13.3034,4.60092,2470.787,2023-6-19T03:12:16Z
2023-06-19T01:13:04Z,42.805,6.029,13.3036,4.60097,2470.777,2023-6-19T03:15:19Z
2023-06-19T01:16:07Z,42.805,6.029,13.3030,4.60094,2470.763,2023-6-19T03:18:22Z
2023-06-19T01:19:10Z,42.805,6.029,13.3031,4.60092,2470.74,2023-6-19T03:21:25Z
2023-06-19T01:22:13Z,42.805,6.029,13.3031,4.60092,2470.8,2023-6-19T03:24:28Z
2023-06-19T01:25:17Z,42.805,6.029,13.3029,4.60093,2470.74,2023-6-19T03:27:31Z
2023-06-19T01:28:20Z,42.805,6.029,13.3034,4.60099,2470.75,2023-6-19T03:30:34Z
2023-06-19T01:31:23Z,42.805,6.029,13.3033,4.60100,2470.763,2023-6-19T03:33:37Z
2023-06-19T01:34:26Z,42.805,6.029,13.3031,4.60092,2470.763,2023-6-19T03:36:40Z
2023-06-19T01:37:29Z,42.805,6.029,13.3027,4.60093,2470.763,2023-6-19T03:39:43Z
2023-06-19T01:40:32Z,42.805,6.029,13.3030,4.60093,2470.763,2023-6-19T03:42:46Z
2023-06-19T01:43:35Z,42.805,6.029,13.3027,4.60093,2470.73,2023-6-19T03:45:49Z
2023-06-19T01:46:38Z,42.805,6.029,13.3029,4.60094,2470.763,2023-6-19T03:48:53Z
2023-06-19T01:49:41Z,42.805,6.029,13.3030,4.60098,2470.763,2023-6-19T03:51:56Z
2023-06-19T01:52:44Z,42.805,6.029,13.3031,4.60100,2470.754,2023-6-19T03:54:59Z
2023-06-19T01:55:47Z,42.805,6.029,13.3029,4.60092,2470.74,2023-6-19T03:58:02Z
2023-06-19T01:58:51Z,42.805,6.029,13.3029,4.60093,2470.74,2023-6-19T04:01:05Z
2023-06-19T02:01:54Z,42.805,6.029,13.3028,4.60092,2470.74,2023-6-19T04:04:08Z
2023-06-19T02:04:57Z,42.805,6.029,13.3034,4.60089,2470.74,2023-6-19T04:07:11Z
2023-06-19T02:08:00Z,42.805,6.029,13.3035,4.60088,2470.74,2023-6-19T04:10:14Z
2023-06-19T02:11:03Z,42.805,6.029,13.3034,4.60095,2470.74,2023-6-19T04:13:17Z
2023-06-19T02:14:06Z,42.805,6.029,13.3029,4.60097,2470.754,2023-6-19T04:16:20Z
2023-06-19T02:17:09Z,42.805,6.029,13.3028,4.60096,2470.74,2023-6-19T04:19:23Z
2023-06-19T02:20:12Z,42.805,6.029,13.3031,4.60099,2470.717,2023-6-19T04:22:27Z
2023-06-19T02:23:15Z,42.805,6.029,13.3033,4.60089,2470.73,2023-6-19T04:25:30Z
2023-06-19T02:26:18Z,42.805,6.029,13.3030,4.60097,2470.717,2023-6-19T04:28:33Z
2023-06-19T02:29:21Z,42.805,6.029,13.3031,4.60094,2470.74,2023-6-19T04:31:36Z
2023-06-19T02:32:24Z,42.805,6.029,13.3031,4.60097,2470.74,2023-6-19T04:34:39Z
2023-06-19T02:35:27Z,42.805,6.029,13.3032,4.60091,2470.74,2023-6-19T04:37:42Z
2023-06-19T02:38:31Z,42.805,6.029,13.3029,4.60098,2470.754,2023-6-19T04:40:45Z
2023-06-19T02:41:34Z,42.805,6.029,13.3031,4.60093,2470.73,2023-6-19T04:43:48Z
2023-06-19T02:44:37Z,42.805,6.029,13.3030,4.60091,2470.754,2023-6-19T04:46:51Z
2023-06-19T02:47:40Z,42.805,6.029,13.3031,4.60096,2470.717,2023-6-19T04:49:54Z
2023-06-19T02:50:43Z,42.805,6.029,13.3035,4.60092,2470.777,2023-6-19T04:52:57Z
2023-06-19T02:53:46Z,42.805,6.029,13.3034,4.60097,2470.717,2023-6-19T04:56:00Z
2023-06-19T02:56:49Z,42.805,6.029,13.3034,4.60094,2470.717,2023-6-19T04:59:03Z
2023-06-19T02:59:52Z,42.805,6.029,13.3038,4.60092,2470.717,2023-6-19T05:02:07Z
2023-06-19T03:02:55Z,42.805,6.029,13.3036,4.60094,2470.74,2023-6-19T05:05:10Z
2023-06-19T03:05:58Z,42.805,6.029,13.3031,4.60091,2470.73,2023-6-19T05:08:13Z
2023-06-19T03:09:01Z,42.805,6.029,13.3034,4.60102,2470.717,2023-6-19T05:11:16Z
2023-06-19T03:12:04Z,42.805,6.029,13.3028,4.60094,2470.73,2023-6-19T05:14:19Z
2023-06-19T03:15:08Z,42.805,6.029,13.3032,4.60097,2470.717,2023-6-19T05:17:22Z
2023-06-19T03:18:11Z,42.805,6.029,13.3029,4.60096,2470.754,2023-6-19T05:20:25Z
2023-06-19T03:21:14Z,42.805,6.029,13.3032,4.60100,2470.717,2023-6-19T05:23:28Z
2023-06-19T03:24:17Z,42.805,6.029,13.3034,4.60099,2470.717,2023-6-19T05:26:31Z
2023-06-19T03:27:20Z,42.805,6.029,13.3031,4.60096,2470.74,2023-6-19T05:29:34Z
2023-06-19T03:30:23Z,42.805,6.029,13.3033,4.60099,2470.74,2023-6-19T05:32:37Z
2023-06-19T03:33:26Z,42.805,6.029,13.3034,4.60101,2470.717,2023-6-19T05:35:41Z
2023-06-19T03:36:29Z,42.805,6.029,13.3039,4.60104,2470.74,2023-6-19T05:38:44Z
2023-06-19T03:39:32Z,42.805,6.029,13.3033,4.60101,2470.717,2023-6-19T05:41:47Z
2023-06-19T03:42:35Z,42.805,6.029,13.3036,4.60099,2470.717,2023-6-19T05:44:50Z
2023-06-19T03:45:38Z,42.805,6.029,13.3034,4.60102,2470.693,2023-6-19T05:47:53Z
2023-06-19T03:48:41Z,42.805,6.029,13.3031,4.60106,2470.693,2023-6-19T05:50:56Z
2023-06-19T03:51:45Z,42.805,6.029,13.3033,4.60099,2470.717,2023-6-19T05:53:59Z
2023-06-19T03:54:48Z,42.805,6.029,13.3035,4.60103,2470.74,2023-6-19T05:57:02Z
2023-06-19T03:57:51Z,42.805,6.029,13.3037,4.60099,2470.74,2023-6-19T06:00:05Z
2023-06-19T04:00:54Z,42.805,6.029,13.3031,4.60097,2470.74,2023-6-19T06:03:08Z
2023-06-19T04:03:57Z,42.805,6.029,13.3036,4.60094,2470.74,2023-6-19T06:06:11Z
2023-06-19T04:07:00Z,42.805,6.029,13.3033,4.60108,2470.74,2023-6-19T06:09:14Z
2023-06-19T04:10:03Z,42.805,6.029,13.3032,4.60098,2470.763,2023-6-19T06:12:17Z
2023-06-19T04:13:06Z,42.805,6.029,13.3036,4.60093,2470.754,2023-6-19T06:15:21Z
2023-06-19T04:16:09Z,42.805,6.029,13.3036,4.60102,2470.754,2023-6-19T06:18:24Z
2023-06-19T04:19:12Z,42.805,6.029,13.3035,4.60097,2470.754,2023-6-19T06:21:27Z
2023-06-19T04:22:15Z,42.805,6.029,13.3034,4.60097,2470.754,2023-6-19T06:24:30Z
2023-06-19T04:25:18Z,42.805,6.029,13.3034,4.60099,2470.763,2023-6-19T06:27:33Z
2023-06-19T04:28:22Z,42.805,6.029,13.3029,4.60097,2470.763,2023-6-19T06:30:36Z
2023-06-19T04:31:25Z,42.805,6.029,13.3034,4.60091,2470.777,2023-6-19T06:33:39Z
2023-06-19T04:34:28Z,42.805,6.029,13.3039,4.60103,2470.754,2023-6-19T06:36:42Z
2023-06-19T04:37:31Z,42.805,6.029,13.3034,4.60099,2470.763,2023-6-19T06:39:45Z
2023-06-19T04:40:34Z,42.805,6.029,13.3033,4.60095,2470.777,2023-6-19T06:42:48Z
2023-06-19T04:43:37Z,42.805,6.029,13.3031,4.60103,2470.787,2023-6-19T06:45:51Z
2023-06-19T04:46:40Z,42.805,6.029,13.3036,4.60099,2470.763,2023-6-19T06:48:55Z
2023-06-19T04:49:43Z,42.805,6.029,13.3034,4.60102,2470.777,2023-6-19T06:51:58Z
2023-06-19T04:52:46Z,42.805,6.029,13.3033,4.60095,2470.777,2023-6-19T06:55:01Z
2023-06-19T04:55:49Z,42.805,6.029,13.3035,4.60094,2470.777,2023-6-19T06:58:04Z
2023-06-19T04:58:52Z,42.805,6.029,13.3034,4.60095,2470.777,2023-6-19T07:01:07Z
2023-06-19T05:01:55Z,42.805,6.029,13.3033,4.60095,2470.763,2023-6-19T07:04:10Z
2023-06-19T05:04:59Z,42.805,6.029,13.3037,4.60094,2470.763,2023-6-19T07:07:13Z
2023-06-19T05:08:02Z,42.805,6.029,13.3037,4.60093,2470.763,2023-6-19T07:10:16Z
2023-06-19T05:11:05Z,42.805,6.029,13.3037,4.60098,2470.777,2023-6-19T07:13:19Z
2023-06-19T05:14:08Z,42.805,6.029,13.3036,4.60095,2470.763,2023-6-19T07:16:22Z
2023-06-19T05:17:11Z,42.805,6.029,13.3029,4.60101,2470.777,2023-6-19T07:19:25Z
2023-06-19T05:20:14Z,42.805,6.029,13.3031,4.60107,2470.763,2023-6-19T07:22:28Z
2023-06-19T05:23:17Z,42.805,6.029,13.3038,4.60092,2470.787,2023-6-19T07:25:32Z
2023-06-19T05:26:20Z,42.805,6.029,13.3038,4.60099,2470.787,2023-6-19T07:28:35Z
2023-06-19T05:29:23Z,42.805,6.029,13.3032,4.60107,2470.777,2023-6-19T07:31:38Z
2023-06-19T05:32:26Z,42.805,6.029,13.3034,4.60099,2470.8,2023-6-19T07:34:41Z
2023-06-19T05:35:29Z,42.805,6.029,13.3036,4.60093,2470.763,2023-6-19T07:37:44Z
2023-06-19T05:38:33Z,42.805,6.029,13.3034,4.60094,2470.81,2023-6-19T07:40:47Z
2023-06-19T05:41:36Z,42.805,6.029,13.3033,4.60096,2470.8,2023-6-19T07:43:50Z
2023-06-19T05:44:39Z,42.805,6.029,13.3031,4.60097,2470.8,2023-6-19T07:46:53Z
2023-06-19T05:47:42Z,42.805,6.029,13.3036,4.60104,2470.74,2023-6-19T07:49:56Z
2023-06-19T05:50:45Z,42.805,6.029,13.3036,4.60099,2470.787,2023-6-19T07:52:59Z
2023-06-19T05:53:48Z,42.805,6.029,13.3036,4.60099,2470.787,2023-6-19T07:56:02Z
2023-06-19T05:56:51Z,42.805,6.029,13.3031,4.60103,2470.81,2023-6-19T07:59:06Z
2023-06-19T05:59:54Z,42.805,6.029,13.3034,4.60098,2470.824,2023-6-19T08:02:09Z
2023-06-19T06:02:57Z,42.805,6.029,13.3034,4.60096,2470.81,2023-6-19T08:05:12Z
2023-06-19T06:06:00Z,42.805,6.029,13.3039,4.60101,2470.8,2023-6-19T08:08:15Z
2023-06-19T06:09:03Z,42.805,6.029,13.3035,4.60102,2470.787,2023-6-19T08:11:18Z
2023-06-19T06:12:06Z,42.805,6.029,13.3036,4.60100,2470.787,2023-6-19T08:14:21Z
2023-06-19T06:15:10Z,42.805,6.029,13.3034,4.60101,2470.787,2023-6-19T08:17:24Z
2023-06-19T06:18:13Z,42.805,6.029,13.3037,4.60102,2470.833,2023-6-19T08:20:27Z
2023-06-19T06:21:16Z,42.805,6.029,13.3034,4.60097,2470.81,2023-6-19T08:23:30Z
2023-06-19T06:24:19Z,42.805,6.029,13.3037,4.60095,2470.81,2023-6-19T08:26:33Z
2023-06-19T06:27:22Z,42.805,6.029,13.3032,4.60097,2470.787,2023-6-19T08:29:36Z
2023-06-19T06:30:23Z,42.805,6.029,13.3032,4.60099,2470.824,2023-6-19T08:32:38Z
2023-06-19T06:33:26Z,42.805,6.029,13.3037,4.60099,2470.81,2023-6-19T08:35:41Z
2023-06-19T06:36:29Z,42.805,6.029,13.3029,4.60097,2470.81,2023-6-19T08:38:44Z
2023-06-19T06:39:33Z,42.805,6.029,13.3033,4.60099,2470.81,2023-6-19T08:41:47Z
2023-06-19T06:42:36Z,42.805,6.029,13.3042,4.60105,2470.847,2023-6-19T08:44:50Z
2023-06-19T06:45:39Z,42.805,6.029,13.3037,4.60097,2470.847,2023-6-19T08:47:53Z
2023-06-19T06:48:42Z,42.805,6.029,13.3036,4.60101,2470.81,2023-6-19T08:50:56Z
2023-06-19T06:51:45Z,42.805,6.029,13.3031,4.60094,2470.81,2023-6-19T08:53:59Z
2023-06-19T06:54:48Z,42.805,6.029,13.3039,4.60104,2470.833,2023-6-19T08:57:02Z
2023-06-19T06:57:51Z,42.805,6.029,13.3030,4.60108,2470.833,2023-6-19T09:00:06Z
2023-06-19T07:00:54Z,42.805,6.029,13.3034,4.60110,2470.81,2023-6-19T09:03:09Z
2023-06-19T07:03:57Z,42.805,6.029,13.3035,4.60102,2470.81,2023-6-19T09:06:12Z
2023-06-19T07:07:00Z,42.805,6.029,13.3033,4.60092,2470.824,2023-6-19T09:09:15Z
2023-06-19T07:10:03Z,42.805,6.029,13.3034,4.60099,2470.833,2023-6-19T09:12:18Z
2023-06-19T07:13:06Z,42.805,6.029,13.3031,4.60097,2470.824,2023-6-19T09:15:21Z
2023-06-19T07:16:10Z,42.805,6.029,13.3031,4.60094,2470.833,2023-6-19T09:18:24Z
2023-06-19T07:19:13Z,42.805,6.029,13.3035,4.60099,2470.847,2023-6-19T09:21:27Z
2023-06-19T07:22:16Z,42.805,6.029,13.3030,4.60092,2470.833,2023-6-19T09:24:30Z
2023-06-19T07:25:19Z,42.805,6.029,13.3031,4.60096,2470.833,2023-6-19T09:27:33Z
2023-06-19T07:28:22Z,42.805,6.029,13.3034,4.60099,2470.82,2023-6-19T09:30:36Z
2023-06-19T07:31:25Z,42.805,6.029,13.3038,4.60100,2470.847,2023-6-19T09:33:39Z
2023-06-19T07:34:28Z,42.805,6.029,13.3033,4.60092,2470.833,2023-6-19T09:36:42Z
2023-06-19T07:37:31Z,42.805,6.029,13.3034,4.60100,2470.833,2023-6-19T09:39:46Z
2023-06-19T07:40:34Z,42.805,6.029,13.3033,4.60102,2470.847,2023-6-19T09:42:49Z
2023-06-19T07:43:37Z,42.805,6.029,13.3029,4.60092,2470.81,2023-6-19T09:45:52Z
2023-06-19T07:46:40Z,42.805,6.029,13.3035,4.60099,2470.871,2023-6-19T09:48:55Z
2023-06-19T07:49:43Z,42.805,6.029,13.3031,4.60099,2470.787,2023-6-19T09:51:58Z
2023-06-19T07:52:47Z,42.805,6.029,13.3031,4.60097,2470.857,2023-6-19T09:55:01Z
2023-06-19T07:55:50Z,42.805,6.029,13.3031,4.60099,2470.787,2023-6-19T09:58:04Z
2023-06-19T07:58:53Z,42.805,6.029,13.3029,4.60098,2470.787,2023-6-19T10:01:07Z
2023-06-19T08:01:56Z,42.805,6.029,13.3034,4.60107,2470.847,2023-6-19T10:04:10Z
2023-06-19T08:04:59Z,42.805,6.029,13.3030,4.60105,2470.8,2023-6-19T10:07:13Z
2023-06-19T08:08:02Z,42.805,6.029,13.3030,4.60097,2470.847,2023-6-19T10:10:16Z
2023-06-19T08:11:05Z,42.805,6.029,13.3034,4.60102,2470.8,2023-6-19T10:13:19Z
2023-06-19T08:14:08Z,42.805,6.029,13.3031,4.60099,2470.857,2023-6-19T10:16:23Z
2023-06-19T08:17:11Z,42.805,6.029,13.3031,4.60097,2470.787,2023-6-19T10:19:26Z
2023-06-19T08:20:14Z,42.805,6.029,13.3029,4.60099,2470.824,2023-6-19T10:22:29Z
2023-06-19T08:23:17Z,42.805,6.029,13.3034,4.60098,2470.824,2023-6-19T10:25:32Z
2023-06-19T08:26:20Z,42.805,6.029,13.3029,4.60096,2470.787,2023-6-19T10:28:35Z
2023-06-19T08:29:24Z,42.805,6.029,13.3032,4.60098,2470.81,2023-6-19T10:31:38Z
2023-06-19T08:32:26Z,42.805,6.029,13.3031,4.60102,2470.81,2023-6-19T10:34:41Z
2023-06-19T08:35:29Z,42.805,6.029,13.3030,4.60099,2470.81,2023-6-19T10:37:44Z
2023-06-19T08:38:32Z,42.805,6.029,13.3030,4.60097,2470.833,2023-6-19T10:40:47Z
2023-06-19T08:41:35Z,42.805,6.029,13.3035,4.60105,2470.81,2023-6-19T10:43:50Z
2023-06-19T08:44:39Z,42.805,6.029,13.3036,4.60101,2470.824,2023-6-19T10:46:53Z
2023-06-19T08:47:42Z,42.805,6.029,13.3030,4.60094,2470.833,2023-6-19T10:49:56Z
2023-06-19T08:50:45Z,42.805,6.029,13.3029,4.60094,2470.763,2023-6-19T10:52:59Z
2023-06-19T08:53:48Z,42.805,6.029,13.3031,4.60102,2470.81,2023-6-19T10:56:02Z
2023-06-19T08:56:51Z,42.805,6.029,13.3029,4.60093,2470.8,2023-6-19T10:59:05Z
2023-06-19T08:59:54Z,42.805,6.029,13.3034,4.60095,2470.824,2023-6-19T11:02:08Z
2023-06-19T09:02:57Z,42.805,6.029,13.3042,4.60114,2470.787,2023-6-19T11:05:12Z
2023-06-19T09:06:00Z,42.805,6.029,13.3037,4.60095,2470.763,2023-6-19T11:08:15Z
2023-06-19T09:09:03Z,42.805,6.029,13.3036,4.60097,2470.81,2023-6-19T11:11:18Z
2023-06-19T09:12:06Z,42.805,6.029,13.3031,4.60097,2470.763,2023-6-19T11:14:21Z
2023-06-19T09:15:09Z,42.805,6.029,13.3029,4.60098,2470.763,2023-6-19T11:17:24Z
2023-06-19T09:18:13Z,42.805,6.029,13.3035,4.60100,2470.787,2023-6-19T11:20:27Z
2023-06-19T09:21:16Z,42.805,6.029,13.3031,4.60097,2470.777,2023-6-19T11:23:30Z
2023-06-19T09:24:19Z,42.805,6.029,13.3031,4.60102,2470.777,2023-6-19T11:26:33Z
2023-06-19T09:27:22Z,42.805,6.029,13.3034,4.60099,2470.8,2023-6-19T11:29:36Z
2023-06-19T09:30:25Z,42.805,6.029,13.3031,4.60105,2470.787,2023-6-19T11:32:39Z
2023-06-19T09:33:28Z,42.805,6.029,13.3032,4.60100,2470.787,2023-6-19T11:35:42Z
2023-06-19T09:36:31Z,42.805,6.029,13.3035,4.60101,2470.787,2023-6-19T11:38:45Z
2023-06-19T09:39:34Z,42.805,6.029,13.3032,4.60097,2470.787,2023-6-19T11:41:49Z
2023-06-19T09:42:37Z,42.805,6.029,13.3031,4.60102,2470.74,2023-6-19T11:44:52Z
2023-06-19T09:45:40Z,42.805,6.029,13.3032,4.60096,2470.777,2023-6-19T11:47:55Z
2023-06-19T09:48:43Z,42.805,6.029,13.3034,4.60098,2470.763,2023-6-19T11:50:58Z
2023-06-19T09:51:46Z,42.805,6.029,13.3034,4.60100,2470.763,2023-6-19T11:54:01Z
2023-06-19T09:54:50Z,42.805,6.029,13.3032,4.60104,2470.763,2023-6-19T11:57:04Z
2023-06-19T09:57:53Z,42.805,6.029,13.3029,4.60100,2470.777,2023-6-19T12:00:07Z
2023-06-19T10:00:56Z,42.805,6.029,13.3031,4.60092,2470.763,2023-6-19T12:03:10Z
2023-06-19T10:03:59Z,42.805,6.029,13.3039,4.60104,2470.787,2023-6-19T12:06:13Z
2023-06-19T10:07:02Z,42.805,6.029,13.3032,4.60101,2470.777,2023-6-19T12:09:16Z
2023-06-19T10:10:05Z,42.805,6.029,13.3029,4.60097,2470.74,2023-6-19T12:12:19Z
2023-06-19T10:13:08Z,42.805,6.029,13.3031,4.60098,2470.777,2023-6-19T12:15:22Z
2023-06-19T10:16:11Z,42.805,6.029,13.3032,4.60092,2470.777,2023-6-19T12:18:26Z
2023-06-19T10:19:14Z,42.805,6.029,13.3027,4.60094,2470.763,2023-6-19T12:21:29Z
2023-06-19T10:22:17Z,42.805,6.029,13.3028,4.60094,2470.74,2023-6-19T12:24:32Z
2023-06-19T10:25:20Z,42.805,6.029,13.3038,4.60101,2470.74,2023-6-19T12:27:35Z
2023-06-19T10:28:23Z,42.805,6.029,13.3026,4.60097,2470.74,2023-6-19T12:30:38Z
2023-06-19T10:31:27Z,42.805,6.029,13.3031,4.60093,2470.74,2023-6-19T12:33:41Z
2023-06-19T10:34:30Z,42.805,6.029,13.3028,4.60094,2470.74,2023-6-19T12:36:44Z
2023-06-19T10:37:33Z,42.805,6.029,13.3036,4.60090,2470.777,2023-6-19T12:39:47Z
2023-06-19T10:40:36Z,42.805,6.029,13.3029,4.60102,2470.787,2023-6-19T12:42:50Z
2023-06-19T10:43:39Z,42.805,6.029,13.3034,4.60101,2470.754,2023-6-19T12:45:53Z
2023-06-19T10:46:42Z,42.805,6.029,13.3034,4.60100,2470.73,2023-6-19T12:48:56Z
2023-06-19T10:49:45Z,42.805,6.029,13.3031,4.60097,2470.754,2023-6-19T12:52:00Z
2023-06-19T10:52:48Z,42.805,6.029,13.3036,4.60102,2470.717,2023-6-19T12:55:03Z
2023-06-19T10:55:51Z,42.805,6.029,13.3031,4.60099,2470.717,2023-6-19T12:58:06Z
2023-06-19T10:58:54Z,42.805,6.029,13.3031,4.60095,2470.74,2023-6-19T13:01:09Z
2023-06-19T11:01:57Z,42.805,6.029,13.3032,4.60104,2470.73,2023-6-19T13:04:12Z
2023-06-19T11:05:00Z,42.805,6.029,13.3033,4.60104,2470.717,2023-6-19T13:07:15Z
2023-06-19T11:08:04Z,42.805,6.029,13.3029,4.60100,2470.754,2023-6-19T13:10:18Z
2023-06-19T11:11:07Z,42.805,6.029,13.3033,4.60104,2470.707,2023-6-19T13:13:21Z
2023-06-19T11:14:10Z,42.805,6.029,13.3033,4.60097,2470.693,2023-6-19T13:16:24Z
2023-06-19T11:17:13Z,42.805,6.029,13.3031,4.60102,2470.717,2023-6-19T13:19:27Z
2023-06-19T11:20:16Z,42.805,6.029,13.3030,4.60097,2470.73,2023-6-19T13:22:30Z
2023-06-19T11:23:19Z,42.805,6.029,13.3034,4.60099,2470.73,2023-6-19T13:25:33Z
2023-06-19T11:26:22Z,42.805,6.029,13.3032,4.60102,2470.717,2023-6-19T13:28:37Z
2023-06-19T11:29:25Z,42.805,6.029,13.3030,4.60099,2470.717,2023-6-19T13:31:40Z
2023-06-19T11:32:28Z,42.805,6.029,13.3032,4.60096,2470.73,2023-6-19T13:34:43Z
2023-06-19T11:35:31Z,42.805,6.029,13.3034,4.60104,2470.717,2023-6-19T13:37:46Z
2023-06-19T11:38:34Z,42.805,6.029,13.3032,4.60095,2470.684,2023-6-19T13:40:49Z
2023-06-19T11:41:37Z,42.805,6.029,13.3030,4.60099,2470.693,2023-6-19T13:43:52Z
2023-06-19T11:44:41Z,42.805,6.029,13.3030,4.60104,2470.754,2023-6-19T13:46:55Z
2023-06-19T11:47:44Z,42.805,6.029,13.3031,4.60101,2470.707,2023-6-19T13:49:58Z
2023-06-19T11:50:47Z,42.805,6.029,13.3039,4.60111,2470.717,2023-6-19T13:53:01Z
2023-06-19T11:53:50Z,42.805,6.029,13.3040,4.60105,2470.693,2023-6-19T13:56:04Z
2023-06-19T11:56:53Z,42.805,6.029,13.3029,4.60096,2470.67,2023-6-19T13:59:07Z
2023-06-19T11:59:56Z,42.805,6.029,13.3034,4.60109,2470.73,2023-6-19T14:02:10Z
2023-06-19T12:02:59Z,42.805,6.029,13.3036,4.60099,2470.67,2023-6-19T14:05:14Z
2023-06-19T12:06:02Z,42.805,6.029,13.3034,4.60098,2470.693,2023-6-19T14:08:17Z
2023-06-19T12:09:05Z,42.805,6.029,13.3031,4.60099,2470.684,2023-6-19T14:11:20Z
2023-06-19T12:12:08Z,42.805,6.029,13.3035,4.60095,2470.684,2023-6-19T14:14:23Z
2023-06-19T12:15:11Z,42.805,6.029,13.3032,4.60101,2470.684,2023-6-19T14:17:26Z
2023-06-19T12:18:14Z,42.805,6.029,13.3033,4.60098,2470.754,2023-6-19T14:20:29Z
2023-06-19T12:21:18Z,42.805,6.029,13.3029,4.60101,2470.684,2023-6-19T14:23:32Z
2023-06-19T12:24:21Z,42.805,6.029,13.3030,4.60106,2470.707,2023-6-19T14:26:35Z
2023-06-19T12:27:24Z,42.805,6.029,13.3031,4.60100,2470.693,2023-6-19T14:29:38Z
2023-06-19T12:30:27Z,42.805,6.029,13.3034,4.60101,2470.73,2023-6-19T14:32:42Z
2023-06-19T12:33:31Z,42.805,6.029,13.3033,4.60104,2470.67,2023-6-19T14:35:45Z
2023-06-19T12:36:34Z,42.805,6.029,13.3039,4.60108,2470.693,2023-6-19T14:38:48Z
2023-06-19T12:39:37Z,42.805,6.029,13.3034,4.60101,2470.717,2023-6-19T14:41:51Z
2023-06-19T12:42:40Z,42.805,6.029,13.3035,4.60102,2470.646,2023-6-19T14:44:54Z
2023-06-19T12:45:43Z,42.805,6.029,13.3031,4.60104,2470.684,2023-6-19T14:47:57Z
2023-06-19T12:48:46Z,42.805,6.029,13.3034,4.60104,2470.67,2023-6-19T14:51:00Z
2023-06-19T12:51:49Z,42.805,6.029,13.3038,4.60108,2470.67,2023-6-19T14:54:04Z
2023-06-19T12:54:52Z,42.805,6.029,13.3037,4.60109,2470.646,2023-6-19T14:57:07Z
2023-06-19T12:57:55Z,42.805,6.029,13.3036,4.60104,2470.684,2023-6-19T15:00:10Z
2023-06-19T13:00:58Z,42.805,6.029,13.3036,4.60103,2470.684,2023-6-19T15:03:13Z
2023-06-19T13:04:01Z,42.805,6.029,13.3038,4.60099,2470.67,2023-6-19T15:06:16Z
2023-06-19T13:07:04Z,42.805,6.029,13.3035,4.60106,2470.67,2023-6-19T15:09:19Z
2023-06-19T13:10:08Z,42.805,6.029,13.3036,4.60104,2470.684,2023-6-19T15:12:22Z
2023-06-19T13:13:11Z,42.805,6.029,13.3036,4.60102,2470.693,2023-6-19T15:15:25Z
2023-06-19T13:16:14Z,42.805,6.029,13.3028,4.60100,2470.624,2023-6-19T15:18:28Z
2023-06-19T13:19:17Z,42.805,6.029,13.3034,4.60101,2470.646,2023-6-19T15:21:31Z
2023-06-19T13:22:20Z,42.805,6.029,13.3035,4.60106,2470.679,2023-6-19T15:24:34Z
2023-06-19T13:25:23Z,42.805,6.029,13.3033,4.60104,2470.67,2023-6-19T15:27:37Z
2023-06-19T13:28:26Z,42.805,6.029,13.3037,4.60097,2470.67,2023-6-19T15:30:41Z
2023-06-19T13:31:29Z,42.805,6.029,13.3038,4.60112,2470.684,2023-6-19T15:33:44Z
2023-06-19T13:34:32Z,42.805,6.029,13.3039,4.60103,2470.67,2023-6-19T15:36:47Z
2023-06-19T13:37:35Z,42.805,6.029,13.3038,4.60108,2470.646,2023-6-19T15:39:50Z
2023-06-19T13:40:38Z,42.805,6.029,13.3038,4.60103,2470.661,2023-6-19T15:42:53Z
2023-06-19T13:43:42Z,42.805,6.029,13.3037,4.60108,2470.661,2023-6-19T15:45:56Z
2023-06-19T13:46:45Z,42.805,6.029,13.3036,4.60104,2470.67,2023-6-19T15:48:59Z
2023-06-19T13:49:48Z,42.805,6.029,13.3039,4.60110,2470.67,2023-6-19T15:52:02Z
2023-06-19T13:52:51Z,42.805,6.029,13.3034,4.60112,2470.67,2023-6-19T15:55:05Z
2023-06-19T13:55:54Z,42.805,6.029,13.3036,4.60103,2470.67,2023-6-19T15:58:08Z
2023-06-19T13:58:57Z,42.805,6.029,13.3033,4.60099,2470.646,2023-6-19T16:01:11Z
2023-06-19T14:02:00Z,42.805,6.029,13.3034,4.60099,2470.684,2023-6-19T16:04:14Z
2023-06-19T14:05:03Z,42.805,6.029,13.3034,4.60106,2470.661,2023-6-19T16:07:18Z
2023-06-19T14:08:06Z,42.805,6.029,13.3040,4.60104,2470.684,2023-6-19T16:10:21Z
2023-06-19T14:11:09Z,42.805,6.029,13.3034,4.60107,2470.684,2023-6-19T16:13:24Z
2023-06-19T14:14:12Z,42.805,6.029,13.3046,4.60114,2470.67,2023-6-19T16:16:27Z
2023-06-19T14:17:15Z,42.805,6.029,13.3037,4.60106,2470.684,2023-6-19T16:19:30Z
2023-06-19T14:20:19Z,42.805,6.029,13.3037,4.60111,2470.67,2023-6-19T16:22:33Z
2023-06-19T14:23:22Z,42.805,6.029,13.3034,4.60107,2470.67,2023-6-19T16:25:36Z
2023-06-19T14:26:25Z,42.805,6.029,13.3037,4.60107,2470.661,2023-6-19T16:28:39Z
2023-06-19T14:29:28Z,42.805,6.029,13.3038,4.60101,2470.646,2023-6-19T16:31:42Z
2023-06-19T14:32:31Z,42.805,6.029,13.3039,4.60099,2470.646,2023-6-19T16:34:46Z
2023-06-19T14:35:35Z,42.805,6.029,13.3038,4.60102,2470.684,2023-6-19T16:37:49Z
2023-06-19T14:38:38Z,42.805,6.029,13.3032,4.60095,2470.67,2023-6-19T16:40:52Z
2023-06-19T14:41:41Z,42.805,6.029,13.3034,4.60099,2470.67,2023-6-19T16:43:55Z
2023-06-19T14:44:44Z,42.805,6.029,13.3040,4.60107,2470.624,2023-6-19T16:46:58Z
2023-06-19T14:47:47Z,42.805,6.029,13.3041,4.60119,2470.67,2023-6-19T16:50:01Z
2023-06-19T14:50:50Z,42.805,6.029,13.3034,4.60108,2470.624,2023-6-19T16:53:04Z
2023-06-19T14:53:53Z,42.805,6.029,13.3031,4.60101,2470.646,2023-6-19T16:56:08Z
2023-06-19T14:56:56Z,42.805,6.029,13.3038,4.60109,2470.67,2023-6-19T16:59:11Z
2023-06-19T14:59:59Z,42.805,6.029,13.3035,4.60109,2470.646,2023-6-19T17:02:14Z
2023-06-19T15:03:02Z,42.805,6.029,13.3036,4.60109,2470.656,2023-6-19T17:05:17Z
2023-06-19T15:06:05Z,42.805,6.029,13.3033,4.60109,2470.693,2023-6-19T17:08:20Z
2023-06-19T15:09:08Z,42.805,6.029,13.3036,4.60107,2470.67,2023-6-19T17:11:23Z
2023-06-19T15:12:12Z,42.805,6.029,13.3037,4.60109,2470.684,2023-6-19T17:14:26Z
2023-06-19T15:15:15Z,42.805,6.029,13.3038,4.60110,2470.684,2023-6-19T17:17:29Z